CW3467 Sant Marti de Canals ES current weather conditions

sailwx.info

Wind from 215 at 1 knots gusting 7

Air temperature 12.8° C
Dewpoint 6.6° C

Last reported at 2016-Apr-30 10:39 UTC.
Time now 2016-Apr-30 11:14 UTC

Location: N 42°14' E 000°59'.
View on Google Maps.

See reports from other nearby stations

  
Tides and Currents Weather Stations Pressure Air Temp Water Temp Dewpoint Dewpoint Depression Visibility Wind Speed Wind Dir Waves Ship Positions
date/time (UTC)wind fromknots sea level pressurealtimeterstation pressurevisibilityair tempwater tempwave heightnotes
2016-Apr-30 10:39 215 1 gusting 7 12.8
2016-Apr-30 10:24 235 4 gusting 8 13.9
2016-Apr-30 10:09 222 3 gusting 6 13.9
2016-Apr-30 09:54 229 0 gusting 5 12.8
2016-Apr-30 09:39 235 1 gusting 4 12.8
2016-Apr-30 09:24 224 1 gusting 4 12.2
2016-Apr-30 09:09 215 12.2
2016-Apr-30 08:54 119 1 gusting 3 10.6
2016-Apr-30 08:39 223 10.6
2016-Apr-30 08:24 232 10.6
2016-Apr-30 08:08 253 10.0
2016-Apr-30 07:53 228 9.4
2016-Apr-30 07:38 111 8.9
2016-Apr-30 07:23 112 8.3
2016-Apr-30 07:08 229 8.9
2016-Apr-30 06:53 229 8.9
2016-Apr-30 06:38 227 8.9
2016-Apr-30 06:23 224 8.3
2016-Apr-30 06:08 008 8.3
2016-Apr-30 05:53 318 7.8
2016-Apr-30 05:38 359 7.8
2016-Apr-30 05:23 314 8.3
2016-Apr-30 05:08 340 8.3
2016-Apr-30 04:53 340 7.8
2016-Apr-30 04:38 340 7.8
2016-Apr-30 04:23 101 8.3
2016-Apr-30 04:08 133 0 gusting 1 8.3
2016-Apr-30 03:53 084 8.3
2016-Apr-30 03:38 017 8.3
2016-Apr-30 03:23 353 8.3
2016-Apr-30 03:08 040 8.3
2016-Apr-30 02:53 107 8.9
2016-Apr-30 02:40 091 8.9
2016-Apr-30 02:23 357 9.4
2016-Apr-30 02:08 110 8.9
2016-Apr-30 01:53 113 8.9
2016-Apr-30 01:38 226 9.4
2016-Apr-30 01:23 214 9.4
2016-Apr-30 01:08 215 9.4
2016-Apr-30 00:53 290 10.0
2016-Apr-30 00:38 286 10.0
2016-Apr-30 00:23 340 10.0
2016-Apr-30 00:08 340 10.0
2016-Apr-29 23:53 347 10.0
2016-Apr-29 23:38 339 10.0
2016-Apr-29 23:23 126 10.0
2016-Apr-29 23:08 135 0 gusting 2 10.0
2016-Apr-29 22:53 063 10.6
2016-Apr-29 22:37 067 10.6
2016-Apr-29 22:22 046 10.6
2016-Apr-29 22:07 032 10.6
2016-Apr-29 21:52 008 11.1
2016-Apr-29 21:37 030 11.1
2016-Apr-29 21:22 046 11.1
2016-Apr-29 21:07 218 11.1
2016-Apr-29 20:52 216 11.1
2016-Apr-29 20:37 128 1 gusting 3 11.7
2016-Apr-29 20:22 153 3 gusting 9 12.2
2016-Apr-29 20:07 150 6 gusting 10 12.2
2016-Apr-29 19:52 142 6 gusting 12 12.2
2016-Apr-29 19:37 122 7 gusting 11 12.8
2016-Apr-29 19:22 141 2 gusting 7 12.8
2016-Apr-29 19:07 148 2 gusting 8 12.8
2016-Apr-29 18:52 134 1 gusting 7 13.3
2016-Apr-29 18:37 119 6 gusting 9 13.3
2016-Apr-29 18:22 139 6 gusting 9 13.9
2016-Apr-29 18:07 136 6 gusting 11 15.0
2016-Apr-29 17:53 159 1 gusting 5 16.1
2016-Apr-29 17:38 255 0 gusting 6 16.7
2016-Apr-29 17:23 242 2 gusting 6 17.2
2016-Apr-29 17:08 219 0 gusting 4 17.2
2016-Apr-29 16:53 228 1 gusting 6 17.2
2016-Apr-29 16:38 238 2 gusting 8 17.2
2016-Apr-29 16:23 217 2 gusting 6 17.2
2016-Apr-29 16:08 204 2 gusting 6 17.2
2016-Apr-29 15:53 215 2 gusting 6 17.2
2016-Apr-29 15:38 236 3 gusting 7 16.7
2016-Apr-29 15:23 250 1 gusting 5 17.2
2016-Apr-29 15:08 219 0 gusting 7 17.2
2016-Apr-29 14:53 192 1 gusting 6 17.2
2016-Apr-29 14:38 197 4 gusting 7 16.7
2016-Apr-29 14:22 215 1 gusting 8 16.1
2016-Apr-29 14:07 212 3 gusting 8 16.1
2016-Apr-29 13:52 222 3 gusting 7 16.1
2016-Apr-29 13:37 293 5 gusting 10 16.1
2016-Apr-29 13:22 193 5 gusting 12 16.1
2016-Apr-29 13:07 229 3 gusting 8 16.1
2016-Apr-29 12:52 261 1 gusting 4 16.1
2016-Apr-29 12:37 195 2 gusting 6 15.6
2016-Apr-29 12:22 221 1 gusting 6 15.0
2016-Apr-29 12:07 218 2 gusting 7 15.0
2016-Apr-29 11:52 168 2 gusting 6 15.0
2016-Apr-29 11:37 202 3 gusting 8 14.4
2016-Apr-29 11:23 278 1 gusting 7 14.4
2016-Apr-29 11:07 218 2 gusting 6 13.9
2016-Apr-29 10:52 232 2 gusting 6 13.9
2016-Apr-29 10:37 200 0 gusting 5 13.3
2016-Apr-29 10:22 129 1 gusting 5 13.3
2016-Apr-29 10:07 233 12.8
2016-Apr-29 09:52 201 1 gusting 5 12.2
2016-Apr-29 09:37 226 0 gusting 5 11.7
2016-Apr-29 09:22 231 0 gusting 4 11.1
2016-Apr-29 09:07 218 0 gusting 3 10.0
2016-Apr-29 08:52 158 9.4
2016-Apr-29 08:37 245 9.4
2016-Apr-29 08:22 238 0 gusting 2 8.9
2016-Apr-29 08:07 259 8.3
2016-Apr-29 07:52 231 8.3
2016-Apr-29 07:37 215 8.3
2016-Apr-29 07:21 221 8.3
2016-Apr-29 07:06 243 8.3
2016-Apr-29 06:51 257 8.3
2016-Apr-29 06:36 148 7.8
2016-Apr-29 06:21 237 7.2
2016-Apr-29 06:06 227 7.2
2016-Apr-29 05:51 231 7.2
2016-Apr-29 05:36 260 7.2
2016-Apr-29 05:21 262 7.2
2016-Apr-29 05:06 263 7.2
2016-Apr-29 04:51 253 7.2
2016-Apr-29 04:36 250 7.2
2016-Apr-29 04:21 221 7.2
2016-Apr-29 04:06 220 7.2
2016-Apr-29 03:51 156 7.2
2016-Apr-29 03:36 222 7.2
2016-Apr-29 03:21 238 7.2
2016-Apr-29 03:06 239 7.2
2016-Apr-29 02:51 231 7.2
2016-Apr-29 02:36 233 7.8
2016-Apr-29 02:21 242 7.8
2016-Apr-29 02:06 229 7.8
2016-Apr-29 01:51 221 7.8
2016-Apr-29 01:36 207 7.8
2016-Apr-29 01:20 176 7.8
2016-Apr-29 01:05 086 7.8
2016-Apr-29 00:50 086 7.8
2016-Apr-29 00:35 086 7.8
2016-Apr-29 00:20 086 7.8
2016-Apr-29 00:05 086 7.8
2016-Apr-28 23:50 086 7.8
2016-Apr-28 23:35 086 7.8
2016-Apr-28 23:20 346 7.8
2016-Apr-28 23:05 347 8.3
2016-Apr-28 22:50 347 8.3
2016-Apr-28 22:35 347 8.3
2016-Apr-28 22:20 347 8.3
2016-Apr-28 22:05 348 8.3
2016-Apr-28 21:50 349 8.3
2016-Apr-28 21:35 348 8.3
2016-Apr-28 21:20 337 8.3
2016-Apr-28 21:05 338 8.3
2016-Apr-28 20:50 339 8.3
2016-Apr-28 20:35 034 8.3
2016-Apr-28 20:20 034 8.3
2016-Apr-28 20:05 352 8.3
2016-Apr-28 19:50 353 8.3
2016-Apr-28 19:35 025 8.3
2016-Apr-28 19:20 020 8.3
2016-Apr-28 19:05 341 8.9
2016-Apr-28 18:50 022 8.9
2016-Apr-28 18:35 318 8.9
2016-Apr-28 18:20 214 9.4
2016-Apr-28 18:05 186 8.9
2016-Apr-28 17:50 229 0 gusting 7 9.4
2016-Apr-28 17:35 150 10.0
2016-Apr-28 17:20 130 5 gusting 10 10.6
2016-Apr-28 17:05 127 6 gusting 9 11.1
2016-Apr-28 16:50 120 5 gusting 8 11.7
2016-Apr-28 16:35 250 12.2
2016-Apr-28 16:20 325 0 gusting 4 12.2
2016-Apr-28 16:05 221 2 gusting 5 12.2
2016-Apr-28 15:50 257 1 gusting 4 13.3
2016-Apr-28 15:35 298 1 gusting 4 13.3
2016-Apr-28 15:20 266 1 gusting 6 13.3
2016-Apr-28 15:05 233 0 gusting 2 12.8
2016-Apr-28 14:50 249 12.2
2016-Apr-28 14:35 226 0 gusting 4 12.8
2016-Apr-28 14:20 240 1 gusting 4 12.8
2016-Apr-28 14:05 281 1 gusting 5 12.8
2016-Apr-28 13:49 276 1 gusting 5 12.8
2016-Apr-28 13:34 266 0 gusting 4 12.2
2016-Apr-28 13:19 238 11.7
2016-Apr-28 13:04 162 0 gusting 3 11.1
2016-Apr-28 12:49 277 0 gusting 2 11.1
2016-Apr-28 12:34 224 0 gusting 3 10.6
2016-Apr-28 12:19 232 1 gusting 2 10.0
2016-Apr-28 12:04 097 0 gusting 3 10.0
2016-Apr-28 11:49 149 0 gusting 3 10.0
2016-Apr-28 11:34 240 0 gusting 2 10.0
2016-Apr-28 11:19 133 10.0
2016-Apr-28 11:04 238 10.0